Location: Cleveland
(41.4990°N, 81.6960°W)
Time: 20:26:39
(UTC-04:00)

ISS - Pass Details

Date: 26 September 2021
Orbit: 417 x 423 km, 51.6° (Epoch: 18 October)

Event Time Altitude Azimuth Distance (km) Brightness Sun altitude
Rises 21:10:22 0° 307° (NW) 2,365 1.3 -21.8°
Reaches altitude 10° 21:13:00 10° 328° (NNW) 1,501 -0.3 -22.3°
Enters shadow 21:14:59 17° 4° (N) 1,153 -1.4 -22.7°
